Regional Weather Roundup
Issued by NWS

Home | Current Version | Previous Version | Graphics & Text | Print | Product List | Glossary On
Versions: 1 2 3 4 5 6 7 8 9 10 11 12 13 14 15 16 17 18 19 20 21 22 23 24 25 26 27 28 29 30 31 32 33 34 35 36 37 38 39 40 41 42 43 44 45 46 47 48 49 50
000
ASUS43 KMKX 251011
RWRWI

WISCONSIN REGIONAL WEATHER ROUNDUP
NATIONAL WEATHER SERVICE MILWAUKEE/SULLIVAN WI
500 AM CDT MON JUL 25 2016

NOTE: "FAIR" INDICATES FEW OR NO CLOUDS BELOW 12,000 FEET WITH NO
SIGNIFICANT WEATHER AND/OR OBSTRUCTIONS TO VISIBILITY.

WIZ001-002-006>008-014>016-023>028-251100-
NORTHWEST WISCONSIN

CITY           SKY/WX    TMP DP  RH WIND       PRES   REMARKS
SUPERIOR ARPT  CLEAR     61  60  96 SW6       29.96R
ASHLAND        CLEAR     63  60  90 SW6       29.95R
HAYWARD        CLEAR     60  58  92 CALM      29.98R
SIREN          NOT AVBL
CUMBERLAND     CLEAR     61  59  94 W5        30.00R
RICE LAKE      CLEAR     61  59  92 CALM      30.01R
CHETEK         CLEAR     61  60  98 CALM      30.00R
LADYSMITH      CLEAR     61  59  94 CALM      30.00S
EAU CLAIRE     CLEAR     65  61  87 CALM      29.98S
MENOMONIE      CLEAR     66  61  85 W5        30.00S
NEW RICHMOND   CLEAR     63  60  92 W3        30.02R
OSCEOLA        CLEAR     64  60  86 SW3       30.03S
$$

WIZ003>005-009-010-017-018-251100-
NORTH CENTRAL WISCONSIN

CITY           SKY/WX    TMP DP  RH WIND       PRES   REMARKS
MANITOWISH WTR CLEAR     61  61 100 W5        29.96S
ARBOR VITAE    CLEAR     63  61  92 W3        29.96S
WOODRUFF       CLEAR     63  61  92 W3        29.96S
RHINELANDER    CLEAR     62  59  90 W8        29.97S
EAGLE RIVER    CLEAR     63  61  93 W7        29.94S
LAND O LAKES   CLEAR     62  59  92 W3        29.95S
PHILLIPS       CLEAR     59  59 100 CALM      29.97S
TOMAHAWK       CLEAR     59  57  95 W3        29.97S
MEDFORD        CLEAR     61  61 100 W6        29.98S
MERRILL        CLEAR     61  61 100 W5        29.97S
$$

WIZ029-030-035-036-043>047-251100-
CENTRAL WISCONSIN

CITY           SKY/WX    TMP DP  RH WIND       PRES   REMARKS
WAUSAU         CLEAR     64  61  90 NW6       29.95S
MOSINEE        CLEAR     63  61  94 NW8       29.98S
MARSHFIELD     CLEAR     63  59  87 NW7       29.98S
STEVENS POINT  CLEAR     64  61  92 W3        29.97S
WAUPACA        CLEAR     68  65  92 W5        29.96R
WAUTOMA        CLEAR     64  63  96 CALM      29.98R
WISC RAPIDS    CLEAR     65  61  87 W5        29.99R
CAMP DOUGLAS   CLEAR     62  61  95 W6        29.99R
$$

WIZ011>013-019>022-031-037>040-048>050-251100-
NORTHEAST WISCONSIN

CITY           SKY/WX    TMP DP  RH WIND       PRES   REMARKS
ANTIGO         CLEAR     60  60  99 W5        29.96S
SHAWANO        CLEAR     67  62  84 W6        29.93S
OCONTO         CLEAR     65  65 100 W5        29.90R
STURGEON BAY   CLEAR     69  64  84 W7        29.91S
GREEN BAY      CLEAR     66  65  96 W7        29.92S
MANITOWOC      CLEAR     69  62  78 W7        29.93S
APPLETON       CLEAR     64  63  94 W9        29.94S
CLINTONVILLE   CLEAR     64  61  88 W6        29.93S
OSHKOSH        CLEAR     68  63  84 W7        29.94F
$$

WIZ032>034-041-042-053>061-251100-
SOUTHWEST WISCONSIN

CITY           SKY/WX    TMP DP  RH WIND       PRES   REMARKS
LA CROSSE      CLEAR     68  63  84 W3        29.99S
SPARTA         CLEAR     59  59 100 CALM      30.00S
VIROQUA        CLEAR     63  63 100 W6        30.02S
BOSCOBEL       CLEAR     66  64  93 SW3       30.01R
PRAIRIE DU CHI CLEAR     66  63  90 CALM      30.02R
PLATTEVILLE    PTCLDY    65  65 100 SW5       30.03R
$$

WIZ056-057-062-063-064-067-068-251100-
SOUTH CENTRAL WISCONSIN

CITY           SKY/WX    TMP DP  RH WIND       PRES   REMARKS
REEDSBURG      CLEAR     64  64 100 CALM      29.99S
BARABOO/DELLS  CLEAR     64  61  92 CALM      29.99S
LONE ROCK      CLEAR     67  65  93 W7        30.01R
MINERAL POINT  CLOUDY    66  64  94 CALM      30.02S
MADISON        PTCLDY    69  65  86 W3        29.98R
MIDDLETON      PTCLDY    67  65  94 W3        30.00S
WATERTOWN      CLOUDY    68  68 100 CALM      29.96S
MONROE         CLOUDY    68  64  88 W6        30.00S
JANESVILLE     MOCLDY    70  68  94 CALM      29.98S
$$

WIZ051-052-058>065-066-070>072-251100-
SOUTHEAST WISCONSIN

CITY           SKY/WX    TMP DP  RH WIND       PRES   REMARKS
MILWAUKEE      PTCLDY    76  65  68 NW8       29.95R
WAUKESHA       PTCLDY    68  63  83 W6        29.98R
MILWAUKEE/TIMM PTCLDY    70  61  73 W5        29.96S
RACINE         CLOUDY    73  65  75 W6        29.96S
BURLINGTON     CLOUDY    69  67  93 CALM      29.97S
KENOSHA        PTCLDY    71  66  84 W6        29.97R
FOND DU LAC    CLEAR     69  63  81 W8        29.95F
SHEBOYGAN      CLEAR     69  64  84 W6        29.93S
WEST BEND      CLEAR     68  63  83 CALM      29.96R
JUNEAU         CLEAR     67  64  90 CALM      29.97S
$$

LSZ147-162-251100-
LAKE SUPERIOR

STATION/POSITION TIME  TEMP    WIND        PRES    WAVE
                       AIR SEA DIR/SP/G            HT/PER
                 (UTC) (F)     (DEG/KT/KT) (MB)    (FT/S)
W MID LAKE BUOY  0950   64 58  260/ 12/ 14 1010.9R   2/ 4
DEVILS ISLAND    1000   65     260/ 14/ 16 1012.9R
SAXON HARBOR     0900   68     210/  6/  8 1013.2
$$

LMZ867-665-643>646-251100-
LAKE MICHIGAN

STATION/POSITION TIME  TEMP    WIND        PRES    WAVE
                       AIR SEA DIR/SP/G            HT/PER
                 (UTC) (F)     (DEG/KT/KT) (MB)    (FT/S)
CHAMBERS ISLAND  0900   69     220/  4/  9 1011.9R
S GREEN BAY BUOY 0930   71 74  250/ 10/ 12   N/A
N MID LAKE BUOY  0950   70 68  230/ 12/ 14 1010.3S   2/ 6
NORTHPORT PIER   0900   71     250/  3/  9 1011.5R
KEWAUNEE LAKESHO 0900   69     300/  5/  6 1012.4R
SHEBOYGAN LAKESH 1000   72     280/ 12/ 14 1013.4R
PORT WASHINGTON  0940   73     260/  3/  6 1014.2S
MILWAUKEE LAKESH 0910   76     290/  3/  4   N/A
S MID LAKE BUOY  0950   74 72  290/  8/ 10 1012.3F   2/ 4
KENOSHA   LAKESH 1000   74     280/  8/ 11 1013.9R
$$

TC  - TEMPERATURE IN CELSIUS
VSB - VISIBILITY IN STATUTE MILES
WCI - WIND CHILL INDEX
HX  - HEAT INDEX




USA.gov is the U.S. government's official web portal to all federal, state and local government web resources and services.